User: anonymous   Login
Location: French River
(46.0362°N, 80.5373°W)
Time: 13:54:29
(UTC-05:00)
Language:

ISS - Orbit

View from above orbital plane
View from above orbital plane
View from above satellite
View from above satellite

Ground track
Ground track

The orbit data is extracted from the following two-line orbital elements,

1 25544U 98067A   24058.53519608  .00023511  00000-0  42705-3 0  9999
2 25544  51.6422 143.7454 0005758 300.3007 142.0288 15.49424907441399
Epoch (UTC): 27 February 2024 12:50:40
Eccentricity: 0.0005758
inclination: 51.6422°
perigee height: 414 km
apogee height: 422 km
right ascension of ascending node: 143.7454°
argument of perigee: 300.3007°
revolutions per day: 15.49424907
mean anomaly at epoch: 142.0288°
orbit number at epoch: 44139

The dashed part of the orbit path shows where the satellite is in the earth's shadow,  

DLR